Location: Unspecified
(0.0000°N, 0.0000°E)
Time: 18:47:25
(UTC+00:00)

Tiangong 2 - Pass Details

Date: 17 November 2017
Orbit: 386 x 391 km, 42.8° (Epoch: 20 November)

Event Time Altitude Azimuth Distance (km) Brightness Sun altitude
Rises 18:46:13 0° 320° (NW) 2,253 5.2 -14.4°
Reaches altitude 10° 18:48:18 10° 323° (NW) 1,401 4.1 -14.9°
Maximum altitude 18:51:26 64° 46° (NE) 428 1.0 -15.6°
Enters shadow 18:52:48 30° 118° (ESE) 723 2.1 -16.0°
